date,time,SUV Intensity [MED/Hr],UV Index,Daily total [MED],Since Last [MED]
26/03/2023,00:04:30,0.001,0.0,0.0,0.0
26/03/2023,00:05:29,-0.000,0.0,0.0,0.0
26/03/2023,00:06:29,-0.000,0.0,0.0,0.0
26/03/2023,00:07:29,0.001,0.0,0.0,0.0
26/03/2023,00:08:30,-0.000,0.0,0.0,0.0
26/03/2023,00:09:30,-0.000,0.0,0.0,0.0
26/03/2023,00:10:30,0.000,0.0,0.0,0.0
26/03/2023,00:11:30,-0.000,0.0,0.0,0.0
26/03/2023,00:12:30,0.000,0.0,0.0,0.0
26/03/2023,00:13:29,0.000,0.0,0.0,0.0
26/03/2023,00:14:29,0.000,0.0,0.0,0.0
26/03/2023,00:15:29,-0.000,0.0,0.0,0.0
26/03/2023,00:16:29,-0.001,0.0,0.0,0.0
26/03/2023,00:17:30,0.000,0.0,0.0,0.0
26/03/2023,00:18:29,0.000,0.0,0.0,0.0
26/03/2023,00:19:30,0.000,0.0,0.0,0.0
26/03/2023,00:20:30,0.000,0.0,0.0,0.0
26/03/2023,00:21:29,0.001,0.0,0.0,0.0
26/03/2023,00:22:30,0.001,0.0,0.0,0.0
26/03/2023,00:23:29,0.000,0.0,0.0,0.0
26/03/2023,00:24:30,0.000,0.0,0.0,0.0
26/03/2023,00:25:29,-0.001,0.0,0.0,0.0
26/03/2023,00:26:30,-0.001,0.0,0.0,0.0
26/03/2023,00:27:30,0.000,0.0,0.0,0.0
26/03/2023,00:28:30,0.000,0.0,0.0,0.0
26/03/2023,00:29:30,0.000,0.0,0.0,0.0
26/03/2023,00:30:29,0.000,0.0,0.0,0.0
26/03/2023,00:31:29,0.000,0.0,0.0,0.0
26/03/2023,00:32:30,-0.000,0.0,0.0,0.0
26/03/2023,00:33:30,0.001,0.0,0.0,0.0
26/03/2023,00:34:30,0.000,0.0,0.0,0.0
26/03/2023,00:35:29,0.000,0.0,0.0,0.0
26/03/2023,00:36:29,-0.000,0.0,0.0,0.0
26/03/2023,00:37:30,-0.001,0.0,0.0,0.0
26/03/2023,00:38:30,0.000,0.0,0.0,0.0
26/03/2023,00:39:30,0.000,0.0,0.0,0.0
26/03/2023,00:40:30,-0.001,0.0,0.0,0.0
26/03/2023,00:41:29,-0.000,0.0,0.0,0.0
26/03/2023,00:42:30,0.000,0.0,0.0,0.0
26/03/2023,00:43:30,0.001,0.0,0.0,0.0
26/03/2023,00:44:30,-0.001,0.0,0.0,0.0
26/03/2023,00:45:29,0.000,0.0,0.0,0.0
26/03/2023,00:46:29,0.001,0.0,0.0,0.0
26/03/2023,00:47:29,-0.001,0.0,0.0,0.0
26/03/2023,00:48:30,0.000,0.0,0.0,0.0
26/03/2023,00:49:31,0.001,0.0,0.0,0.0
26/03/2023,00:50:30,0.001,0.0,0.0,0.0
26/03/2023,00:51:29,0.000,0.0,0.0,0.0
26/03/2023,00:52:29,-0.000,0.0,0.0,0.0
26/03/2023,00:53:29,0.000,0.0,0.0,0.0
26/03/2023,00:54:30,-0.000,0.0,0.0,0.0
26/03/2023,00:55:30,0.000,0.0,0.0,0.0
26/03/2023,00:56:30,0.001,0.0,0.0,0.0
26/03/2023,00:57:30,0.000,0.0,0.0,0.0
26/03/2023,00:58:30,0.000,0.0,0.0,0.0
26/03/2023,00:59:30,0.000,0.0,0.0,0.0
26/03/2023,01:00:30,0.001,0.0,0.0,0.0
26/03/2023,01:01:30,-0.001,0.0,0.0,0.0
26/03/2023,01:02:30,0.000,0.0,0.0,0.0
26/03/2023,01:03:30,0.001,0.0,0.0,0.0
26/03/2023,01:04:30,0.000,0.0,0.0,0.0
26/03/2023,01:05:30,0.000,0.0,0.0,0.0
26/03/2023,01:06:30,0.000,0.0,0.0,0.0
26/03/2023,01:07:30,0.000,0.0,0.0,0.0
26/03/2023,01:08:30,-0.000,0.0,0.0,0.0
26/03/2023,01:09:30,0.000,0.0,0.0,0.0
26/03/2023,01:10:30,0.000,0.0,0.0,0.0
26/03/2023,01:11:30,-0.001,0.0,0.0,0.0
26/03/2023,01:12:29,-0.000,0.0,0.0,0.0
26/03/2023,01:13:30,0.000,0.0,0.0,0.0
26/03/2023,01:14:30,-0.001,0.0,0.0,0.0
26/03/2023,01:15:30,0.001,0.0,0.0,0.0
26/03/2023,01:16:30,0.000,0.0,0.0,0.0
26/03/2023,01:17:30,0.000,0.0,0.0,0.0
26/03/2023,01:18:30,0.000,0.0,0.0,0.0
26/03/2023,01:19:30,-0.000,0.0,0.0,0.0
26/03/2023,01:20:31,0.000,0.0,0.0,0.0
26/03/2023,01:21:30,0.000,0.0,0.0,0.0
26/03/2023,01:22:29,0.001,0.0,0.0,0.0
26/03/2023,01:23:29,0.000,0.0,0.0,0.0
26/03/2023,01:24:30,0.000,0.0,0.0,0.0
26/03/2023,01:25:29,0.000,0.0,0.0,0.0
26/03/2023,01:26:29,0.000,0.0,0.0,0.0
26/03/2023,01:27:30,-0.000,0.0,0.0,0.0
26/03/2023,01:28:30,0.001,0.0,0.0,0.0
26/03/2023,01:29:30,0.001,0.0,0.0,0.0
26/03/2023,01:30:30,0.001,0.0,0.0,0.0
26/03/2023,01:31:30,-0.000,0.0,0.0,0.0
26/03/2023,01:32:30,0.000,0.0,0.0,0.0
26/03/2023,01:33:29,-0.001,0.0,0.0,0.0
26/03/2023,01:34:29,0.001,0.0,0.0,0.0
26/03/2023,01:35:30,0.001,0.0,0.0,0.0
26/03/2023,01:36:29,0.000,0.0,0.0,0.0
26/03/2023,01:37:30,0.000,0.0,0.0,0.0
26/03/2023,01:38:29,0.000,0.0,0.0,0.0
26/03/2023,01:39:30,0.000,0.0,0.0,0.0
26/03/2023,01:40:29,-0.000,0.0,0.0,0.0
26/03/2023,01:41:29,0.000,0.0,0.0,0.0
26/03/2023,01:42:29,0.000,0.0,0.0,0.0
26/03/2023,01:43:30,0.000,0.0,0.0,0.0
26/03/2023,01:44:30,-0.000,0.0,0.0,0.0
26/03/2023,01:45:30,0.000,0.0,0.0,0.0
26/03/2023,01:46:30,-0.001,0.0,0.0,0.0
26/03/2023,01:47:30,0.001,0.0,0.0,0.0
26/03/2023,01:48:30,0.001,0.0,0.0,0.0
26/03/2023,01:49:30,0.000,0.0,0.0,0.0
26/03/2023,01:50:30,-0.001,0.0,0.0,0.0
26/03/2023,01:51:29,-0.001,0.0,0.0,0.0
26/03/2023,01:52:30,0.000,0.0,0.0,0.0
26/03/2023,01:53:29,0.000,0.0,0.0,0.0
26/03/2023,01:54:30,0.000,0.0,0.0,0.0
26/03/2023,01:55:29,0.000,0.0,0.0,0.0
26/03/2023,01:56:29,-0.000,0.0,0.0,0.0
26/03/2023,01:57:30,0.001,0.0,0.0,0.0
26/03/2023,01:58:30,0.000,0.0,0.0,0.0
26/03/2023,01:59:30,-0.001,0.0,0.0,0.0
26/03/2023,02:00:30,0.000,0.0,0.0,0.0
26/03/2023,02:01:30,-0.001,0.0,0.0,0.0
26/03/2023,02:02:30,0.000,0.0,0.0,0.0
26/03/2023,02:03:29,0.001,0.0,0.0,0.0
26/03/2023,02:04:29,0.001,0.0,0.0,0.0
26/03/2023,02:05:30,-0.001,0.0,0.0,0.0
26/03/2023,02:06:30,0.000,0.0,0.0,0.0
26/03/2023,02:07:30,0.000,0.0,0.0,0.0
26/03/2023,02:08:30,0.000,0.0,0.0,0.0
26/03/2023,02:09:30,0.000,0.0,0.0,0.0
26/03/2023,02:10:30,-0.000,0.0,0.0,0.0
26/03/2023,02:11:30,0.000,0.0,0.0,0.0
26/03/2023,02:12:30,0.001,0.0,0.0,0.0
26/03/2023,02:13:30,0.000,0.0,0.0,0.0
26/03/2023,02:14:30,0.000,0.0,0.0,0.0
26/03/2023,02:15:30,0.000,0.0,0.0,0.0
26/03/2023,02:16:30,0.001,0.0,0.0,0.0
26/03/2023,02:17:30,0.000,0.0,0.0,0.0
26/03/2023,02:18:30,-0.001,0.0,0.0,0.0
26/03/2023,02:19:29,0.001,0.0,0.0,0.0
26/03/2023,02:20:30,0.000,0.0,0.0,0.0
26/03/2023,02:21:30,0.000,0.0,0.0,0.0
26/03/2023,02:22:30,0.000,0.0,0.0,0.0
26/03/2023,02:23:30,0.000,0.0,0.0,0.0
26/03/2023,02:24:29,0.001,0.0,0.0,0.0
26/03/2023,02:25:30,0.000,0.0,0.0,0.0
26/03/2023,02:26:30,0.001,0.0,0.0,0.0
26/03/2023,02:27:30,0.001,0.0,0.0,0.0
26/03/2023,02:28:30,0.000,0.0,0.0,0.0
26/03/2023,02:29:30,0.000,0.0,0.0,0.0
26/03/2023,02:30:30,-0.001,0.0,0.0,0.0
26/03/2023,02:31:30,0.001,0.0,0.0,0.0
26/03/2023,02:32:30,0.000,0.0,0.0,0.0
26/03/2023,02:33:30,0.000,0.0,0.0,0.0
26/03/2023,02:34:30,-0.000,0.0,0.0,0.0
26/03/2023,02:35:30,0.000,0.0,0.0,0.0
26/03/2023,02:36:30,0.001,0.0,0.0,0.0
26/03/2023,02:37:30,0.000,0.0,0.0,0.0
26/03/2023,02:38:30,0.000,0.0,0.0,0.0
26/03/2023,02:39:30,0.000,0.0,0.0,0.0
26/03/2023,02:40:29,-0.001,0.0,0.0,0.0
26/03/2023,02:41:29,-0.000,0.0,0.0,0.0
26/03/2023,02:42:52,0.000,0.0,0.0,0.0
26/03/2023,02:44:30,0.000,0.0,0.0,0.0
26/03/2023,02:45:30,0.000,0.0,0.0,0.0
26/03/2023,02:46:30,0.000,0.0,0.0,0.0
26/03/2023,02:47:30,-0.001,0.0,0.0,0.0
26/03/2023,02:48:29,0.001,0.0,0.0,0.0
26/03/2023,02:49:30,0.000,0.0,0.0,0.0
26/03/2023,02:50:30,0.000,0.0,0.0,0.0
26/03/2023,02:51:29,0.000,0.0,0.0,0.0
26/03/2023,02:52:30,0.000,0.0,0.0,0.0
26/03/2023,02:53:29,0.001,0.0,0.0,0.0
26/03/2023,02:54:30,0.000,0.0,0.0,0.0
26/03/2023,02:55:30,0.000,0.0,0.0,0.0
26/03/2023,02:56:30,0.000,0.0,0.0,0.0
26/03/2023,02:57:30,0.000,0.0,0.0,0.0
26/03/2023,02:58:29,-0.001,0.0,0.0,0.0
26/03/2023,02:59:30,-0.000,0.0,0.0,0.0
26/03/2023,03:00:30,0.001,0.0,0.0,0.0
26/03/2023,03:01:29,-0.000,0.0,0.0,0.0
26/03/2023,03:02:30,0.000,0.0,0.0,0.0
26/03/2023,03:03:30,0.000,0.0,0.0,0.0
26/03/2023,03:04:30,0.000,0.0,0.0,0.0
26/03/2023,03:05:29,-0.000,0.0,0.0,0.0
26/03/2023,03:06:30,0.000,0.0,0.0,0.0
26/03/2023,03:07:30,-0.001,0.0,0.0,0.0
26/03/2023,03:08:29,0.000,0.0,0.0,0.0
26/03/2023,03:09:30,0.001,0.0,0.0,0.0
26/03/2023,03:10:30,-0.001,0.0,0.0,0.0
26/03/2023,03:11:30,0.000,0.0,0.0,0.0
26/03/2023,03:12:30,0.001,0.0,0.0,0.0
26/03/2023,03:13:30,0.000,0.0,0.0,0.0
26/03/2023,03:14:30,0.001,0.0,0.0,0.0
26/03/2023,03:15:30,0.000,0.0,0.0,0.0
26/03/2023,03:16:30,0.000,0.0,0.0,0.0
26/03/2023,03:17:30,0.000,0.0,0.0,0.0
26/03/2023,03:18:30,0.001,0.0,0.0,0.0
26/03/2023,03:19:30,0.000,0.0,0.0,0.0
26/03/2023,03:20:30,0.000,0.0,0.0,0.0
26/03/2023,03:21:30,0.000,0.0,0.0,0.0
26/03/2023,03:22:30,0.000,0.0,0.0,0.0
26/03/2023,03:23:30,0.000,0.0,0.0,0.0
26/03/2023,03:24:30,0.000,0.0,0.0,0.0
26/03/2023,03:25:30,0.000,0.0,0.0,0.0
26/03/2023,03:26:30,0.000,0.0,0.0,0.0
26/03/2023,03:27:29,0.000,0.0,0.0,0.0
26/03/2023,03:28:30,0.001,0.0,0.0,0.0
26/03/2023,03:29:30,0.001,0.0,0.0,0.0
26/03/2023,03:30:30,-0.000,0.0,0.0,0.0
26/03/2023,03:31:30,0.000,0.0,0.0,0.0
26/03/2023,03:32:30,0.000,0.0,0.0,0.0
26/03/2023,03:33:30,0.000,0.0,0.0,0.0
26/03/2023,03:34:30,0.000,0.0,0.0,0.0
26/03/2023,03:35:30,0.000,0.0,0.0,0.0
26/03/2023,03:36:30,0.000,0.0,0.0,0.0
26/03/2023,03:37:30,0.000,0.0,0.0,0.0
26/03/2023,03:38:30,0.000,0.0,0.0,0.0
26/03/2023,03:39:30,0.001,0.0,0.0,0.0
26/03/2023,03:40:30,0.001,0.0,0.0,0.0
26/03/2023,03:41:30,0.000,0.0,0.0,0.0
26/03/2023,03:42:30,0.000,0.0,0.0,0.0
26/03/2023,03:43:30,-0.000,0.0,0.0,0.0
26/03/2023,03:44:30,-0.001,0.0,0.0,0.0
26/03/2023,03:45:30,0.000,0.0,0.0,0.0
26/03/2023,03:46:30,-0.001,0.0,0.0,0.0
26/03/2023,03:47:30,0.001,0.0,0.0,0.0
26/03/2023,03:48:30,0.000,0.0,0.0,0.0
26/03/2023,03:49:29,0.000,0.0,0.0,0.0
26/03/2023,03:50:30,0.000,0.0,0.0,0.0
26/03/2023,03:51:30,0.000,0.0,0.0,0.0
26/03/2023,03:52:30,0.001,0.0,0.0,0.0
26/03/2023,03:53:30,0.001,0.0,0.0,0.0
26/03/2023,03:54:30,0.001,0.0,0.0,0.0
26/03/2023,03:55:30,0.001,0.0,0.0,0.0
26/03/2023,03:56:30,0.001,0.0,0.0,0.0
26/03/2023,03:57:30,-0.000,0.0,0.0,0.0
26/03/2023,03:58:30,0.001,0.0,0.0,0.0
26/03/2023,03:59:30,0.001,0.0,0.0,0.0
26/03/2023,04:00:30,0.001,0.0,0.0,0.0
26/03/2023,04:01:30,0.000,0.0,0.0,0.0
26/03/2023,04:02:31,0.001,0.0,0.0,0.0
26/03/2023,04:03:30,0.001,0.0,0.0,0.0
26/03/2023,04:04:30,0.001,0.0,0.0,0.0
26/03/2023,04:05:30,0.001,0.0,0.0,0.0
26/03/2023,04:06:30,0.000,0.0,0.0,0.0
26/03/2023,04:07:30,0.001,0.0,0.0,0.0
26/03/2023,04:08:30,0.001,0.0,0.0,0.0
26/03/2023,04:09:30,0.001,0.0,0.0,0.0
26/03/2023,04:10:30,0.001,0.0,0.0,0.0
26/03/2023,04:11:30,0.001,0.0,0.0,0.0
26/03/2023,04:12:30,0.001,0.0,0.0,0.0
26/03/2023,04:13:30,0.001,0.0,0.0,0.0
26/03/2023,04:14:30,0.001,0.0,0.0,0.0
26/03/2023,04:15:30,0.001,0.0,0.0,0.0
26/03/2023,04:16:30,0.001,0.0,0.0,0.0
26/03/2023,04:17:30,0.001,0.0,0.0,0.0
26/03/2023,04:18:30,0.001,0.0,0.0,0.0
26/03/2023,04:19:30,0.001,0.0,0.0,0.0
26/03/2023,04:20:30,0.001,0.0,0.0,0.0
26/03/2023,04:21:30,0.001,0.0,0.0,0.0
26/03/2023,04:22:30,0.001,0.0,0.0,0.0
26/03/2023,04:23:30,0.001,0.0,0.0,0.0
26/03/2023,04:24:30,-0.000,0.0,0.0,0.0
26/03/2023,04:25:30,0.001,0.0,0.0,0.0
26/03/2023,04:26:30,0.001,0.0,0.0,0.0
26/03/2023,04:27:30,0.001,0.0,0.0,0.0
26/03/2023,04:28:30,0.001,0.0,0.0,0.0
26/03/2023,04:29:30,0.001,0.0,0.0,0.0
26/03/2023,04:30:30,-0.000,0.0,0.0,0.0
26/03/2023,04:31:30,0.001,0.0,0.0,0.0
26/03/2023,04:32:30,0.001,0.0,0.0,0.0
26/03/2023,04:33:30,-0.000,0.0,0.0,0.0
26/03/2023,04:34:30,0.001,0.0,0.0,0.0
26/03/2023,04:35:30,0.001,0.0,0.0,0.0
26/03/2023,04:36:30,0.001,0.0,0.0,0.0
26/03/2023,04:37:30,0.001,0.0,0.0,0.0
26/03/2023,04:38:30,0.001,0.0,0.0,0.0
26/03/2023,04:39:30,0.001,0.0,0.0,0.0
26/03/2023,04:40:30,-0.000,0.0,0.0,0.0
26/03/2023,04:41:30,0.000,0.0,0.0,0.0
26/03/2023,04:42:30,0.001,0.0,0.0,0.0
26/03/2023,04:43:30,0.001,0.0,0.0,0.0
26/03/2023,04:44:30,0.001,0.0,0.0,0.0
26/03/2023,04:45:30,0.001,0.0,0.0,0.0
26/03/2023,04:46:30,0.001,0.0,0.0,0.0
26/03/2023,04:47:31,0.001,0.0,0.0,0.0
26/03/2023,04:48:30,0.001,0.0,0.0,0.0
26/03/2023,04:49:30,0.001,0.0,0.0,0.0
26/03/2023,04:50:30,-0.000,0.0,0.0,0.0
26/03/2023,04:51:30,0.001,0.0,0.0,0.0
26/03/2023,04:52:29,0.001,0.0,0.0,0.0
26/03/2023,04:53:30,-0.000,0.0,0.0,0.0
26/03/2023,04:54:30,0.001,0.0,0.0,0.0
26/03/2023,04:55:30,0.001,0.0,0.0,0.0
26/03/2023,04:56:30,0.001,0.0,0.0,0.0
26/03/2023,04:57:30,0.001,0.0,0.0,0.0
26/03/2023,04:58:30,0.001,0.0,0.0,0.0
26/03/2023,04:59:30,0.001,0.0,0.0,0.0
26/03/2023,05:00:30,0.001,0.0,0.0,0.0
26/03/2023,05:01:30,-0.000,0.0,0.0,0.0
26/03/2023,05:02:30,0.001,0.0,0.0,0.0
26/03/2023,05:03:30,0.001,0.0,0.0,0.0
26/03/2023,05:04:33,0.001,0.0,0.0,0.0
26/03/2023,05:05:31,0.001,0.0,0.0,0.0
26/03/2023,05:06:30,0.001,0.0,0.0,0.0
26/03/2023,05:07:30,0.001,0.0,0.0,0.0
26/03/2023,05:08:30,0.001,0.0,0.0,0.0
26/03/2023,05:09:30,0.001,0.0,0.0,0.0
26/03/2023,05:10:30,0.001,0.0,0.0,0.0
26/03/2023,05:11:30,0.001,0.0,0.0,0.0
26/03/2023,05:12:30,0.001,0.0,0.0,0.0
26/03/2023,05:13:30,0.001,0.0,0.0,0.0
26/03/2023,05:14:30,0.001,0.0,0.0,0.0
26/03/2023,05:15:30,0.001,0.0,0.0,0.0
26/03/2023,05:16:30,0.001,0.0,0.0,0.0
26/03/2023,05:17:31,0.001,0.0,0.0,0.0
26/03/2023,05:18:30,0.001,0.0,0.0,0.0
26/03/2023,05:19:30,0.001,0.0,0.0,0.0
26/03/2023,05:20:30,0.001,0.0,0.0,0.0
26/03/2023,05:21:52,0.001,0.0,0.0,0.0
26/03/2023,05:23:31,0.001,0.0,0.0,0.0
26/03/2023,05:24:30,0.000,0.0,0.0,0.0
26/03/2023,05:25:30,0.001,0.0,0.0,0.0
26/03/2023,05:26:30,0.001,0.0,0.0,0.0
26/03/2023,05:27:30,0.001,0.0,0.0,0.0
26/03/2023,05:28:30,0.001,0.0,0.0,0.0
26/03/2023,05:29:30,0.001,0.0,0.0,0.0
26/03/2023,05:30:31,0.001,0.0,0.0,0.0
26/03/2023,05:31:30,0.001,0.0,0.0,0.0
26/03/2023,05:32:30,0.001,0.0,0.0,0.0
26/03/2023,05:33:30,0.001,0.0,0.0,0.0
26/03/2023,05:34:30,0.001,0.0,0.0,0.0
26/03/2023,05:35:30,0.001,0.0,0.0,0.0
26/03/2023,05:36:31,0.001,0.0,0.0,0.0
26/03/2023,05:37:31,0.001,0.0,0.0,0.0
26/03/2023,05:38:30,0.001,0.0,0.0,0.0
26/03/2023,05:39:31,0.001,0.0,0.0,0.0
26/03/2023,05:40:30,0.001,0.0,0.0,0.0
26/03/2023,05:41:30,0.001,0.0,0.0,0.0
26/03/2023,05:42:30,0.001,0.0,0.0,0.0
26/03/2023,05:43:31,0.002,0.0,0.0,0.0
26/03/2023,05:44:31,0.001,0.0,0.0,0.0
26/03/2023,05:45:30,0.001,0.0,0.0,0.0
26/03/2023,05:46:30,0.001,0.0,0.0,0.0
26/03/2023,05:47:31,0.001,0.0,0.0,0.0
26/03/2023,05:48:30,0.001,0.0,0.0,0.0
26/03/2023,05:49:31,0.001,0.0,0.0,0.0
26/03/2023,05:50:30,0.001,0.0,0.0,0.0
26/03/2023,05:51:30,0.001,0.0,0.0,0.0
26/03/2023,05:52:30,0.001,0.0,0.0,0.0
26/03/2023,05:53:30,0.001,0.0,0.0,0.0
26/03/2023,05:54:59,0.001,0.0,0.0,0.0
26/03/2023,05:56:30,0.001,0.0,0.0,0.0
26/03/2023,05:57:30,0.001,0.0,0.0,0.0
26/03/2023,05:58:30,0.002,0.0,0.0,0.0
26/03/2023,05:59:30,0.001,0.0,0.0,0.0
26/03/2023,06:00:30,0.002,0.0,0.0,0.0
26/03/2023,06:01:30,0.002,0.0,0.0,0.0
26/03/2023,06:02:30,0.001,0.0,0.0,0.0
26/03/2023,06:03:30,0.003,0.0,0.0,0.0
26/03/2023,06:04:31,0.002,0.0,0.0,0.0
26/03/2023,06:05:30,0.002,0.0,0.0,0.0
26/03/2023,06:06:30,0.003,0.0,0.0,0.0
26/03/2023,06:07:30,0.004,0.0,0.0,0.0
26/03/2023,06:08:30,0.003,0.0,0.0,0.0
26/03/2023,06:09:30,0.003,0.0,0.0,0.0
26/03/2023,06:10:30,0.003,0.0,0.0,0.0
26/03/2023,06:11:30,0.003,0.0,0.0,0.0
26/03/2023,06:12:30,0.002,0.0,0.0,0.0
26/03/2023,06:13:30,0.002,0.0,0.0,0.0
26/03/2023,06:14:30,0.003,0.0,0.0,0.0
26/03/2023,06:15:30,0.003,0.0,0.0,0.0
26/03/2023,06:16:30,0.004,0.0,0.0,0.0
26/03/2023,06:17:30,0.004,0.0,0.0,0.0
26/03/2023,06:18:30,0.004,0.0,0.0,0.0
26/03/2023,06:19:30,0.005,0.0,0.0,0.0
26/03/2023,06:20:30,0.005,0.0,0.0,0.0
26/03/2023,06:21:30,0.005,0.0,0.0,0.0
26/03/2023,06:22:30,0.005,0.0,0.0,0.0
26/03/2023,06:23:30,0.005,0.0,0.0,0.0
26/03/2023,06:24:30,0.005,0.0,0.0,0.0
26/03/2023,06:25:30,0.006,0.0,0.0,0.0
26/03/2023,06:26:31,0.005,0.0,0.0,0.0
26/03/2023,06:27:30,0.007,0.0,0.0,0.0
26/03/2023,06:28:30,0.006,0.0,0.0,0.0
26/03/2023,06:29:30,0.007,0.0,0.0,0.0
26/03/2023,06:30:30,0.007,0.0,0.0,0.0
26/03/2023,06:31:30,0.008,0.0,0.0,0.0
26/03/2023,06:32:30,0.007,0.0,0.001,0.001
26/03/2023,06:33:30,0.007,0.0,0.001,0.0
26/03/2023,06:34:30,0.007,0.0,0.001,0.0
26/03/2023,06:35:30,0.009,0.0,0.001,0.0
26/03/2023,06:36:30,0.009,0.0,0.001,0.0
26/03/2023,06:37:30,0.009,0.0,0.001,0.0
26/03/2023,06:38:30,0.009,0.0,0.001,0.0
26/03/2023,06:39:30,0.010,0.0,0.002,0.001
26/03/2023,06:40:30,0.010,0.0,0.002,0.0
26/03/2023,06:41:30,0.011,0.0,0.002,0.0
26/03/2023,06:42:31,0.011,0.0,0.002,0.0
26/03/2023,06:43:31,0.012,0.0,0.002,0.0
26/03/2023,06:44:30,0.011,0.0,0.002,0.0
26/03/2023,06:45:30,0.012,0.0,0.003,0.001
26/03/2023,06:46:30,0.012,0.0,0.003,0.0
26/03/2023,06:47:30,0.013,0.0,0.003,0.0
26/03/2023,06:48:30,0.013,0.0,0.003,0.0
26/03/2023,06:49:30,0.014,0.0,0.003,0.0
26/03/2023,06:50:30,0.015,0.0,0.004,0.001
26/03/2023,06:51:31,0.015,0.0,0.004,0.0
26/03/2023,06:52:30,0.016,0.0,0.004,0.0
26/03/2023,06:53:30,0.016,0.0,0.004,0.0
26/03/2023,06:54:30,0.016,0.0,0.005,0.001
26/03/2023,06:55:30,0.017,0.0,0.005,0.0
26/03/2023,06:56:30,0.017,0.0,0.005,0.0
26/03/2023,06:57:30,0.018,0.0,0.006,0.001
26/03/2023,06:58:30,0.018,0.0,0.006,0.0
26/03/2023,06:59:30,0.020,0.0,0.006,0.0
26/03/2023,07:00:30,0.020,0.0,0.006,0.0
26/03/2023,07:01:30,0.021,0.0,0.007,0.001
26/03/2023,07:02:30,0.020,0.0,0.007,0.0
26/03/2023,07:03:30,0.022,0.0,0.008,0.001
26/03/2023,07:04:30,0.023,0.0,0.008,0.0
26/03/2023,07:05:31,0.025,0.0,0.008,0.0
26/03/2023,07:06:30,0.026,0.0,0.009,0.001
26/03/2023,07:07:30,0.027,0.0,0.009,0.0
26/03/2023,07:08:30,0.028,0.0,0.01,0.001
26/03/2023,07:09:30,0.029,0.0,0.01,0.0
26/03/2023,07:10:30,0.030,0.0,0.011,0.001
26/03/2023,07:11:31,0.031,0.0,0.011,0.0
26/03/2023,07:12:31,0.032,0.0,0.012,0.001
26/03/2023,07:13:30,0.033,0.0,0.012,0.0
26/03/2023,07:14:30,0.035,0.0,0.013,0.001
26/03/2023,07:15:30,0.037,0.0,0.013,0.0
26/03/2023,07:16:30,0.037,0.0,0.014,0.001
26/03/2023,07:17:30,0.039,0.0,0.015,0.001
26/03/2023,07:18:30,0.041,0.0,0.015,0.0
26/03/2023,07:19:30,0.043,0.0,0.016,0.001
26/03/2023,07:20:30,0.044,0.0,0.017,0.001
26/03/2023,07:21:30,0.045,0.0,0.017,0.0
26/03/2023,07:22:30,0.047,0.0,0.018,0.001
26/03/2023,07:23:30,0.049,0.0,0.019,0.001
26/03/2023,07:24:30,0.051,0.0,0.02,0.001
26/03/2023,07:25:30,0.052,0.0,0.021,0.001
26/03/2023,07:26:31,0.052,0.0,0.022,0.001
26/03/2023,07:27:30,0.055,0.0,0.022,0.0
26/03/2023,07:28:30,0.056,0.0,0.023,0.001
26/03/2023,07:29:30,0.059,0.0,0.024,0.001
26/03/2023,07:30:31,0.060,0.0,0.025,0.001
26/03/2023,07:31:31,0.063,0.0,0.026,0.001
26/03/2023,07:32:31,0.064,0.0,0.027,0.001
26/03/2023,07:33:30,0.064,0.0,0.028,0.001
26/03/2023,07:34:30,0.067,0.0,0.03,0.002
26/03/2023,07:35:31,0.068,0.0,0.031,0.001
26/03/2023,07:36:31,0.070,0.0,0.032,0.001
26/03/2023,07:37:31,0.070,0.0,0.033,0.001
26/03/2023,07:38:30,0.071,0.0,0.034,0.001
26/03/2023,07:39:30,0.072,0.0,0.035,0.001
26/03/2023,07:40:30,0.073,0.0,0.037,0.002
26/03/2023,07:41:31,0.073,0.0,0.038,0.001
26/03/2023,07:42:31,0.074,0.0,0.039,0.001
26/03/2023,07:43:31,0.076,0.0,0.04,0.001
26/03/2023,07:44:30,0.076,0.0,0.042,0.002
26/03/2023,07:45:31,0.077,0.0,0.043,0.001
26/03/2023,07:46:31,0.077,0.0,0.044,0.001
26/03/2023,07:47:30,0.076,0.0,0.045,0.001
26/03/2023,07:48:31,0.076,0.0,0.047,0.002
26/03/2023,07:49:31,0.075,0.0,0.048,0.001
26/03/2023,07:50:31,0.074,0.0,0.049,0.001
26/03/2023,07:51:30,0.073,0.0,0.05,0.001
26/03/2023,07:52:30,0.072,0.0,0.052,0.002
26/03/2023,07:53:31,0.070,0.0,0.053,0.001
26/03/2023,07:54:31,0.069,0.0,0.054,0.001
26/03/2023,07:55:31,0.067,0.0,0.055,0.001
26/03/2023,07:56:30,0.066,0.0,0.056,0.001
26/03/2023,07:57:30,0.065,0.0,0.057,0.001
26/03/2023,07:58:30,0.066,0.0,0.058,0.001
26/03/2023,07:59:31,0.066,0.0,0.059,0.001
26/03/2023,08:00:31,0.066,0.0,0.061,0.002
26/03/2023,08:01:30,0.066,0.0,0.062,0.001
26/03/2023,08:02:31,0.068,0.0,0.063,0.001
26/03/2023,08:03:31,0.068,0.0,0.064,0.001
26/03/2023,08:04:31,0.072,0.0,0.065,0.001
26/03/2023,08:05:30,0.074,0.0,0.066,0.001
26/03/2023,08:06:30,0.077,0.0,0.068,0.002
26/03/2023,08:07:30,0.080,0.0,0.069,0.001
26/03/2023,08:08:30,0.083,0.0,0.07,0.001
26/03/2023,08:09:31,0.085,0.0,0.072,0.002
26/03/2023,08:10:30,0.088,0.0,0.073,0.001
26/03/2023,08:11:30,0.089,0.0,0.075,0.002
26/03/2023,08:12:30,0.085,0.0,0.076,0.001
26/03/2023,08:13:30,0.082,0.0,0.077,0.001
26/03/2023,08:14:31,0.084,0.0,0.079,0.002
26/03/2023,08:15:31,0.092,0.0,0.08,0.001
26/03/2023,08:16:31,0.098,0.0,0.082,0.002
26/03/2023,08:17:31,0.101,0.0,0.083,0.001
26/03/2023,08:18:31,0.102,0.0,0.085,0.002
26/03/2023,08:19:30,0.102,0.0,0.087,0.002
26/03/2023,08:20:30,0.106,0.0,0.089,0.002
26/03/2023,08:21:30,0.110,0.0,0.09,0.001
26/03/2023,08:22:31,0.112,0.0,0.092,0.002
26/03/2023,08:23:31,0.113,0.0,0.094,0.002
26/03/2023,08:24:31,0.116,0.0,0.096,0.002
26/03/2023,08:25:31,0.121,0.0,0.098,0.002
26/03/2023,08:26:30,0.128,0.0,0.1,0.002
26/03/2023,08:27:30,0.131,0.0,0.102,0.002
26/03/2023,08:28:31,0.134,0.0,0.104,0.002
26/03/2023,08:29:30,0.136,0.0,0.107,0.003
26/03/2023,08:30:30,0.136,0.0,0.109,0.002
26/03/2023,08:31:30,0.134,0.0,0.111,0.002
26/03/2023,08:32:31,0.136,0.0,0.113,0.002
26/03/2023,08:33:31,0.134,0.0,0.116,0.003
26/03/2023,08:34:30,0.133,0.0,0.118,0.002
26/03/2023,08:35:31,0.131,0.0,0.12,0.002
26/03/2023,08:36:30,0.130,0.0,0.122,0.002
26/03/2023,08:37:30,0.129,0.0,0.124,0.002
26/03/2023,08:38:30,0.129,0.0,0.127,0.003
26/03/2023,08:39:30,0.132,0.0,0.129,0.002
26/03/2023,08:40:31,0.134,0.0,0.131,0.002
26/03/2023,08:41:30,0.139,0.0,0.133,0.002
26/03/2023,08:42:31,0.141,0.0,0.136,0.003
26/03/2023,08:43:29,0.143,0.0,0.138,0.002
26/03/2023,08:44:30,0.144,0.0,0.14,0.002
26/03/2023,08:45:30,0.145,0.0,0.143,0.003
26/03/2023,08:46:30,0.144,0.0,0.145,0.002
26/03/2023,08:47:31,0.145,0.0,0.148,0.003
26/03/2023,08:48:31,0.146,0.0,0.15,0.002
26/03/2023,08:49:31,0.146,0.0,0.152,0.002
26/03/2023,08:50:30,0.145,0.0,0.155,0.003
26/03/2023,08:51:30,0.144,0.0,0.157,0.002
26/03/2023,08:52:30,0.142,0.0,0.16,0.003
26/03/2023,08:53:30,0.140,0.0,0.162,0.002
26/03/2023,08:54:30,0.140,0.0,0.164,0.002
26/03/2023,08:55:31,0.138,0.0,0.167,0.003
26/03/2023,08:56:31,0.136,0.0,0.169,0.002
26/03/2023,08:57:31,0.132,0.0,0.171,0.002
26/03/2023,08:58:30,0.131,0.0,0.173,0.002
26/03/2023,08:59:31,0.131,0.0,0.176,0.003
26/03/2023,09:00:31,0.133,0.0,0.178,0.002
26/03/2023,09:01:30,0.136,0.0,0.18,0.002
26/03/2023,09:02:30,0.140,0.0,0.182,0.002
26/03/2023,09:03:30,0.143,0.0,0.185,0.003
26/03/2023,09:04:32,0.145,0.0,0.187,0.002
26/03/2023,09:05:30,0.147,0.0,0.189,0.002
26/03/2023,09:06:30,0.154,0.0,0.192,0.003
26/03/2023,09:07:31,0.161,0.0,0.195,0.003
26/03/2023,09:08:30,0.171,0.0,0.197,0.002
26/03/2023,09:09:31,0.179,0.0,0.2,0.003
26/03/2023,09:10:30,0.183,0.0,0.203,0.003
26/03/2023,09:11:31,0.184,0.0,0.206,0.003
26/03/2023,09:12:30,0.192,0.0,0.209,0.003
26/03/2023,09:13:30,0.198,0.0,0.213,0.004
26/03/2023,09:14:30,0.197,0.0,0.216,0.003
26/03/2023,09:15:30,0.192,0.0,0.219,0.003
26/03/2023,09:16:31,0.192,0.0,0.222,0.003
26/03/2023,09:17:31,0.196,0.0,0.226,0.004
26/03/2023,09:18:31,0.196,0.0,0.229,0.003
26/03/2023,09:19:31,0.196,0.0,0.232,0.003
26/03/2023,09:20:31,0.194,0.0,0.235,0.003
26/03/2023,09:21:30,0.192,0.0,0.239,0.004
26/03/2023,09:22:30,0.193,0.0,0.242,0.003
26/03/2023,09:23:30,0.193,0.0,0.245,0.003
26/03/2023,09:24:30,0.193,0.0,0.248,0.003
26/03/2023,09:25:31,0.196,0.0,0.252,0.004
26/03/2023,09:26:30,0.201,0.0,0.255,0.003
26/03/2023,09:27:31,0.210,0.0,0.258,0.003
26/03/2023,09:28:30,0.219,1.0,0.262,0.004
26/03/2023,09:29:30,0.230,1.0,0.266,0.004
26/03/2023,09:30:31,0.241,1.0,0.27,0.004
26/03/2023,09:31:30,0.253,1.0,0.274,0.004
26/03/2023,09:32:31,0.261,1.0,0.278,0.004
26/03/2023,09:33:31,0.262,1.0,0.282,0.004
26/03/2023,09:34:30,0.253,1.0,0.287,0.005
26/03/2023,09:35:31,0.235,1.0,0.291,0.004
26/03/2023,09:36:31,0.234,1.0,0.295,0.004
26/03/2023,09:37:31,0.231,1.0,0.299,0.004
26/03/2023,09:38:31,0.242,1.0,0.302,0.003
26/03/2023,09:39:31,0.241,1.0,0.306,0.004
26/03/2023,09:40:30,0.228,1.0,0.31,0.004
26/03/2023,09:41:30,0.214,0.0,0.314,0.004
26/03/2023,09:42:31,0.216,0.0,0.318,0.004
26/03/2023,09:43:31,0.213,0.0,0.321,0.003
26/03/2023,09:44:31,0.211,0.0,0.325,0.004
26/03/2023,09:45:31,0.212,0.0,0.328,0.003
26/03/2023,09:46:30,0.204,0.0,0.332,0.004
26/03/2023,09:47:31,0.190,0.0,0.335,0.003
26/03/2023,09:48:31,0.194,0.0,0.338,0.003
26/03/2023,09:49:30,0.200,0.0,0.342,0.004
26/03/2023,09:50:31,0.201,0.0,0.345,0.003
26/03/2023,09:51:31,0.199,0.0,0.348,0.003
26/03/2023,09:52:30,0.194,0.0,0.352,0.004
26/03/2023,09:53:30,0.181,0.0,0.355,0.003
26/03/2023,09:54:30,0.164,0.0,0.358,0.003
26/03/2023,09:55:31,0.148,0.0,0.36,0.002
26/03/2023,09:56:31,0.132,0.0,0.362,0.002
26/03/2023,09:57:31,0.112,0.0,0.365,0.003
26/03/2023,09:58:31,0.090,0.0,0.366,0.001
26/03/2023,09:59:30,0.074,0.0,0.368,0.002
26/03/2023,10:00:31,0.074,0.0,0.369,0.001
26/03/2023,10:01:31,0.091,0.0,0.37,0.001
26/03/2023,10:02:30,0.124,0.0,0.372,0.002
26/03/2023,10:03:30,0.136,0.0,0.374,0.002
26/03/2023,10:04:30,0.167,0.0,0.377,0.003
26/03/2023,10:05:31,0.192,0.0,0.38,0.003
26/03/2023,10:06:31,0.218,1.0,0.383,0.003
26/03/2023,10:07:31,0.188,0.0,0.387,0.004
26/03/2023,10:08:31,0.173,0.0,0.39,0.003
26/03/2023,10:09:30,0.153,0.0,0.392,0.002
26/03/2023,10:10:30,0.163,0.0,0.395,0.003
26/03/2023,10:11:31,0.174,0.0,0.398,0.003
26/03/2023,10:12:31,0.223,1.0,0.401,0.003
26/03/2023,10:13:30,0.291,1.0,0.405,0.004